FW9721 Weather Reports


time (UTC)temp
C
wind
direction
speed
KPH
gust
KPH
rain 1hr
cm
rain 24hr
cm
rain mn
cm
humidity
%
barometer
mb
20260507014553 26 86 11.3 24.1 0.00 0.00 0.00 89 1006.1
20260507013054 27 99 11.3 22.5 0.00 0.00 0.00 89 1005.8
20260507011551 27 117 11.3 19.3 0.00 0.00 0.00 89 1005.7
20260507010052 27 112 20.9 30.6 0.00 0.00 0.00 88 1005.2
20260507004540 27 70 12.9 25.7 0.00 0.00 0.00 88 1005.1
20260507003051 27 103 14.5 35.4 0.00 0.00 0.00 88 1004.8
20260507001606 27 115 24.1 32.2 0.00 0.00 0.00 87 1004.5
20260507000050 27 110 20.9 33.8 0.00 0.00 0.00 86 1004.4
20260506234557 27 96 22.5 38.6 0.00 0.00 0.00 86 1004.3
20260506233052 27 106 24.1 37.0 0.00 0.00 0.00 85 1004.4
20260506231553 28 115 17.7 25.7 0.00 0.00 0.00 84 1004.2
20260506230049 28 98 16.1 29.0 0.00 0.00 0.00 85 1004.0
20260506224600 28 106 22.5 30.6 0.00 0.00 0.00 84 1003.8
20260506223041 28 91 20.9 37.0 0.00 0.00 0.00 83 1003.8
20260506221541 28 114 29.0 35.4 0.00 0.00 0.00 82 1003.8
20260506220051 28 114 22.5 33.8 0.00 0.00 0.00 82 1003.8
20260506214549 28 101 24.1 30.6 0.00 0.00 0.00 81 1003.9
20260506213046 29 96 16.1 29.0 0.00 0.00 0.00 79 1004.0
20260506211553 29 115 14.5 27.4 0.00 0.00 0.00 80 1004.1
20260506210045 29 98 16.1 25.7 0.00 0.00 0.00 78 1004.2
20260506204550 30 91 12.9 25.7 0.00 0.00 0.00 78 1004.2
20260506203040 30 40 8.0 25.7 0.00 0.00 0.00 79 1004.6
20260506201539 30 75 16.1 25.7 0.00 0.00 0.00 79 1004.6
20260506200047 30 257 11.3 20.9 0.00 0.00 0.00 79 1004.9
20260506194546 30 111 6.4 19.3 0.00 0.00 0.00 80 1005.0
20260506193053 29 106 11.3 19.3 0.00 0.00 0.00 79 1005.3
20260506191539 29 129 11.3 20.9 0.00 0.00 0.00 80 1005.7
20260506190046 30 103 9.7 17.7 0.00 0.00 0.00 80 1005.9
20260506184543 29 128 8.0 19.3 0.00 0.00 0.00 80 1005.9
20260506183043 29 95 8.0 16.1 0.00 0.00 0.00 81 1006.0
20260506181559 28 72 9.7 16.1 0.00 0.00 0.00 83 1006.2
20260506180049 28 101 11.3 20.9 0.00 0.00 0.00 84 1006.5
20260506174547 28 46 17.7 22.5 0.00 0.00 0.00 83 1006.7
20260506173107 28 86 11.3 16.1 0.00 0.00 0.00 82 1006.9
20260506171549 28 91 11.3 16.1 0.00 0.00 0.00 83 1007.0
20260506170041 28 40 11.3 17.7 0.00 0.00 0.00 83 1007.1
20260506164547 28 54 8.0 14.5 0.00 0.00 0.00 83 1007.3
20260506163048 27 110 6.4 17.7 0.00 0.00 0.00 84 1007.2
20260506161543 27 107 8.0 16.1 0.00 0.00 0.00 84 1007.2
20260506160057 27 96 11.3 20.9 0.00 0.00 0.00 85 1007.3
20260506154548 27 96 9.7 14.5 0.00 0.00 0.00 87 1007.3
20260506153043 27 35 9.7 20.9 0.00 0.00 0.00 87 1007.3
20260506151546 26 91 14.5 24.1 0.00 0.00 0.00 88 1007.2
20260506150048 26 76 14.5 22.5 0.00 0.00 0.00 89 1007.0
20260506144543 26 86 17.7 25.7 0.00 0.00 0.00 89 1007.1
20260506143051 26 80 20.9 27.4 0.00 0.00 0.00 90 1007.0
20260506141538 26 76 14.5 22.5 0.00 0.00 0.00 90 1007.2
20260506140038 26 76 12.9 17.7 0.00 0.00 0.00 90 1007.1
20260506134547 26 89 9.7 17.7 0.00 0.00 0.00 91 1007.1
20260506133040 26 86 9.7 14.5 0.00 0.00 0.00 91 1007.0
20260506131554 26 90 12.9 16.1 0.00 0.00 0.00 91 1007.1
20260506130053 26 86 8.0 12.9 0.00 0.00 0.00 91 1007.1
20260506124538 26 72 6.4 11.3 0.00 0.05 0.00 91 1006.9
20260506123045 26 36 6.4 12.9 0.00 0.05 0.00 91 1006.8
20260506121542 26 112 4.8 12.9 0.00 0.05 0.00 91 1006.9
20260506120040 26 81 9.7 14.5 0.00 0.05 0.00 91 1006.6
20260506114538 26 103 8.0 11.3 0.00 0.05 0.00 91 1006.6
20260506113038 26 106 6.4 9.7 0.00 0.05 0.00 91 1006.7
20260506111545 26 117 3.2 8.0 0.00 0.05 0.00 91 1006.6
20260506110041 26 103 3.2 9.7 0.00 0.05 0.00 91 1006.4
20260506104547 26 121 3.2 11.3 0.00 0.05 0.00 91 1006.2
20260506103044 26 139 9.7 12.9 0.00 0.05 0.00 91 1006.1
20260506101539 26 143 8.0 12.9 0.00 0.05 0.00 91 1006.1
20260506100045 26 135 8.0 17.7 0.00 0.05 0.00 91 1006.0
20260506094554 26 151 12.9 17.7 0.00 0.05 0.00 91 1006.0
20260506093041 26 137 14.5 19.3 0.00 0.05 0.00 92 1006.0
20260506091549 26 134 12.9 20.9 0.00 0.05 0.00 92 1006.0
20260506090046 26 100 4.8 11.3 0.00 0.05 0.00 92 1005.9
20260506084547 26 154 8.0 12.9 0.00 0.05 0.00 92 1006.2
20260506083046 26 96 3.2 11.3 0.00 0.05 0.00 92 1006.1
20260506081544 26 122 8.0 14.5 0.00 0.05 0.00 92 1006.0
20260506073048 26 136 11.3 17.7 0.00 0.05 0.00 91 1006.6
20260506071548 26 138 12.9 19.3 0.00 0.05 0.00 91 1006.6
20260506061547 26 138 14.5 27.4 0.00 0.05 0.00 91 1007.2
20260506060106 26 143 19.3 27.4 0.00 0.05 0.00 91 1007.4
20260506044547 26 137 17.7 25.7 0.00 0.05 0.05 91 1007.4
20260506043042 26 138 17.7 24.1 0.00 0.05 0.05 90 1007.3
20260506041550 26 125 12.9 25.7 0.00 0.05 0.05 90 1007.3
20260506040044 26 130 14.5 24.1 0.00 0.05 0.05 90 1007.1
20260506034538 26 134 14.5 22.5 0.00 0.05 0.05 90 1006.8
20260506033046 26 121 12.9 25.7 0.00 0.05 0.05 89 1006.8
20260506031548 26 149 20.9 35.4 0.00 0.05 0.05 89 1006.6
20260506030040 26 143 20.9 30.6 0.00 0.05 0.05 89 1006.5
20260506024556 26 91 16.1 32.2 0.00 0.05 0.05 88 1006.4
20260506023053 26 121 14.5 24.1 0.00 0.05 0.05 88 1006.2
20260506021541 26 135 14.5 29.0 0.00 0.05 0.05 88 1005.8
20260506020047 26 149 12.9 25.7 0.00 0.05 0.05 87 1005.7